Wind_Speed
15 15 17 18 18 17 18 20 19 14 11 12 14 15 18 17 16 20 18 14 15 17 21 23 21 20 23 21 17 16 18 19 20 21 21 21 21 23 24 24 24 26 24 20 20 19 19 22 22 18 15 16 16 16 17 20 21 21 22 21 21 22 22 20 18 18 17 15 13 12 10 9 8 8 8 8 8 9 11 11 11 11 10 9 6 5
15 18 18 17 16 14 16 19 18 13 9 9 11 12 16 17 15 18 18 13 14 16 16 19 22 20 21 21 20 19 18 19 20 22 22 22 21 22 24 24 25 26 24 20 19 19 19 23 23 18 17 17 17 17 18 19 20 21 21 22 23 23 22 21 20 19 17 15 13 12 10 8 7 6 6 6 7 9 10 12 13 13 12 11 9 7
16 19 17 15 15 13 12 15 15 13 12 13 12 12 14 16 15 16 15 10 11 15 15 16 20 20 20 20 20 20 19 18 19 22 23 23 22 22 24 25 26 27 25 21 19 19 19 23 23 19 18 18 18 19 19 21 22 23 23 25 26 25 23 24 24 20 17 15 13 11 9 7 6 5 5 5 6 8 10 12 14 15 14 13 11 10
16 17 16 15 13 12 12 11 12 13 14 16 16 15 15 15 16 17 14 12 12 14 16 15 17 19 19 19 19 18 18 17 19 21 22 24 22 22 25 27 27 28 25 22 19 18 19 23 23 20 20 19 19 20 21 22 24 24 25 24 25 26 26 26 26 22 18 16 13 11 8 6 5 4 4 5 6 8 10 13 15 15 16 15 14 12
13 11 13 14 12 13 14 13 13 15 16 17 18 18 16 15 17 14 10 12 13 13 16 14 14 18 19 19 20 19 18 18 19 21 23 25 23 22 26 28 29 28 25 23 20 18 18 20 22 20 21 20 21 22 22 23 24 24 24 23 23 27 27 26 25 23 18 15 13 10 8 6 5 4 4 5 6 7 8 11 13 14 15 15 15 14
15 9 11 12 11 13 15 15 15 16 16 17 19 20 18 15 16 12 8 10 13 14 18 18 13 15 19 21 21 20 20 20 20 21 23 25 23 23 26 28 29 28 26 24 20 18 17 18 21 22 20 19 22 24 24 25 25 24 25 24 25 27 27 26 24 23 18 15 13 10 8 6 4 4 4 5 5 6 7 8 10 12 13 14 15 15
15 11 12 12 12 14 15 15 16 17 17 17 18 21 20 15 14 15 12 12 15 12 14 20 15 12 16 21 21 21 21 21 21 20 22 24 23 23 25 28 30 29 26 24 20 19 18 17 20 22 19 15 18 24 27 29 27 27 27 26 26 28 27 27 25 24 19 15 13 10 8 5 4 3 3 4 5 6 7 8 9 10 12 13 14 14
16 10 10 13 14 15 16 16 15 17 18 16 13 17 21 17 13 14 13 14 15 9 7 17 18 14 13 16 19 21 20 21 22 20 19 22 22 22 24 29 33 30 26 24 21 19 18 17 19 19 17 17 17 21 26 28 27 27 27 26 26 27 28 28 24 24 20 15 11 8 6 3 1 2 4 5 6 7 8 9 9 10 12 12 13 13
16 15 12 14 15 14 16 16 14 17 19 15 9 13 18 19 15 14 16 16 15 11 11 15 17 14 11 14 18 20 21 22 23 21 20 20 20 20 23 30 34 31 26 23 20 19 18 18 18 17 17 19 20 20 23 27 29 29 27 26 25 24 26 26 21 21 18 14 11 8 5 3 1 3 5 7 8 9 9 10 11 12 12 12 12 12
9 16 16 15 17 15 15 14 13 17 19 12 8 12 15 17 17 14 16 17 14 13 13 14 16 13 9 14 19 18 20 22 20 19 20 20 20 21 25 30 32 30 26 22 19 18 18 18 19 18 18 20 22 23 23 22 25 27 25 22 21 21 21 21 19 20 18 13 10 8 6 4 3 4 6 7 9 11 11 12 13 14 15 14 13 12
6 11 15 17 18 14 10 11 11 14 16 10 8 12 14 15 16 14 15 15 11 11 14 14 15 13 8 12 19 19 19 19 18 18 19 20 23 25 28 30 29 27 24 21 21 21 18 19 21 22 23 23 24 25 23 20 19 17 15 12 11 13 14 15 16 16 16 13 10 9 7 6 4 4 6 8 10 12 13 15 16 17 17 17 16 15
10 11 15 18 18 12 7 10 12 13 15 12 12 14 14 14 15 14 15 14 9 8 13 15 14 14 9 8 15 19 16 15 16 17 19 20 21 25 26 27 26 24 22 22 23 22 19 20 24 26 26 24 24 26 25 21 16 11 10 9 7 8 11 13 13 12 13 14 13 11 9 7 6 6 7 9 11 13 15 17 18 18 18 17 18 18
14 14 16 17 17 14 10 11 13 14 16 15 16 17 14 11 11 11 11 10 10 8 9 12 13 13 10 4 7 13 14 15 16 14 18 19 19 22 23 24 24 24 25 26 25 23 20 22 25 23 18 15 18 23 21 16 14 14 14 12 7 7 10 12 12 12 15 16 14 12 11 9 9 8 9 11 12 14 16 18 18 18 18 18 19 19
15 15 17 17 17 16 15 15 14 14 17 18 19 18 13 8 7 8 8 8 10 9 9 10 9 11 11 7 7 9 13 19 20 16 19 21 22 25 24 26 28 26 24 24 23 22 22 24 24 20 16 12 11 12 11 10 13 16 18 15 10 7 8 11 12 14 16 16 14 13 12 11 11 10 10 12 13 15 17 18 19 18 19 20 18 14
14 14 19 20 17 17 19 18 13 11 16 19 19 17 14 11 8 7 6 5 6 7 11 12 8 10 11 9 10 10 11 17 21 22 24 23 22 23 22 24 27 23 19 18 20 22 23 24 23 20 19 18 16 13 10 11 15 20 22 19 12 7 7 11 13 14 15 17 17 15 13 12 12 12 12 13 15 16 17 18 18 18 19 17 11 6
14 13 18 22 18 16 20 19 13 10 14 17 18 17 16 14 11 7 4 3 5 5 7 11 8 7 6 5 9 10 7 10 17 20 19 17 16 18 19 20 22 21 18 18 20 22 23 24 24 23 20 19 20 18 14 13 16 19 22 21 13 7 9 13 15 15 16 17 18 16 14 14 14 14 14 15 16 17 18 18 17 17 16 10 4 1
14 11 13 20 19 16 18 19 17 14 12 13 16 18 16 12 11 10 7 3 4 6 5 9 10 9 7 5 10 12 9 9 13 16 15 12 14 16 15 14 15 17 17 17 20 22 24 25 25 25 23 21 23 23 20 17 15 15 16 19 18 13 13 17 18 18 18 18 17 16 15 15 15 15 15 17 17 18 19 18 16 15 12 6 2 1
12 10 8 16 20 18 16 15 17 17 14 11 15 17 14 10 11 10 7 5 7 7 7 9 11 11 10 9 13 15 12 11 11 14 15 12 12 14 13 10 10 11 14 16 18 22 25 26 26 26 23 21 21 23 24 22 20 17 14 17 19 17 16 19 20 20 19 17 17 16 16 16 16 16 16 18 18 18 19 17 15 13 10 6 3 1
11 12 10 14 17 18 17 16 16 17 18 16 12 12 13 12 11 11 8 5 6 6 7 9 11 11 10 10 17 17 13 12 11 10 11 10 9 10 12 13 12 12 14 15 15 18 23 25 26 26 23 20 20 22 24 24 23 20 17 18 20 19 19 21 22 21 21 19 18 18 17 17 17 17 17 18 19 19 18 15 13 11 8 7 4 1
12 12 11 14 16 15 16 20 20 18 18 19 14 12 14 13 10 11 10 9 9 6 5 9 10 5 2 6 14 16 13 13 14 12 10 9 7 7 8 11 13 14 16 16 16 16 17 20 22 22 21 20 19 19 18 20 22 22 19 18 20 20 20 23 23 22 22 21 20 19 17 18 17 17 18 18 19 19 17 14 12 10 9 8 4 2
14 13 12 12 13 14 16 20 22 20 19 20 20 17 16 13 11 11 10 11 12 7 4 7 6 4 9 12 11 14 14 15 15 13 10 9 8 9 9 10 13 15 15 16 16 14 14 16 17 16 18 19 19 17 15 16 20 22 19 17 17 18 20 22 22 21 21 22 22 20 19 19 19 19 19 18 17 16 15 14 12 10 10 9 5 4
15 14 13 12 13 15 16 18 20 20 17 17 21 21 19 17 13 10 9 12 15 10 7 8 2 4 10 15 12 12 15 15 15 14 11 9 9 11 10 11 14 13 13 12 13 12 11 12 13 13 13 13 13 12 13 15 17 20 20 17 16 19 22 23 20 17 18 20 21 20 19 20 20 19 17 15 15 15 14 14 13 10 11 10 7 6
16 13 13 16 17 14 11 10 14 16 14 13 16 18 19 20 19 15 10 11 14 12 11 11 3 3 12 16 13 11 11 12 14 14 12 11 10 10 9 10 11 10 9 8 7 7 6 7 9 7 4 2 3 4 7 10 12 13 15 15 15 15 16 16 14 13 16 18 19 19 19 19 18 15 13 13 14 14 13 13 12 11 12 10 8 8
17 14 14 17 17 15 11 8 11 15 16 16 16 16 17 18 19 19 16 13 14 13 12 12 6 4 11 15 12 11 12 13 14 13 13 12 10 11 10 10 10 9 8 7 5 5 5 5 5 3 4 4 4 5 6 7 7 9 13 16 16 14 12 12 12 13 15 16 16 17 16 15 12 10 10 11 12 11 10 10 10 11 13 12 10 10
15 13 14 14 12 14 14 12 12 14 17 19 19 17 18 18 16 16 15 14 14 12 11 9 3 4 11 14 11 11 13 13 12 12 12 12 12 13 13 12 11 10 10 10 9 8 7 6 4 4 4 5 5 5 6 6 8 10 15 19 19 17 15 13 12 12 12 12 11 11 10 9 7 6 7 7 8 8 9 9 10 11 14 14 12 12
13 12 11 10 8 7 6 4 7 9 14 19 18 15 14 17 18 16 14 14 13 12 15 12 5 8 9 12 11 9 10 12 13 13 12 13 15 15 15 15 13 13 14 14 13 12 12 12 10 8 8 8 8 8 6 7 7 7 14 19 18 16 15 14 13 12 11 10 9 8 7 6 5 6 6 6 7 8 8 9 10 12 14 15 15 14
15 13 13 10 6 3 2 6 13 12 12 17 16 13 12 14 16 15 16 16 13 13 16 14 12 17 15 13 10 8 9 11 14 15 15 16 16 16 16 17 15 16 18 16 14 14 15 15 13 12 11 10 10 10 9 10 10 10 13 17 15 15 15 15 14 13 12 11 11 9 7 6 7 9 9 9 9 9 9 10 11 13 15 16 17 16
14 14 18 17 10 6 7 6 9 12 7 9 9 8 8 10 12 14 15 14 11 10 7 5 13 18 19 14 11 10 12 14 14 16 18 19 19 18 19 19 18 19 20 19 17 16 16 15 14 13 11 9 9 10 11 12 13 14 15 15 14 16 17 17 16 16 15 14 13 11 9 8 10 11 12 12 11 10 9 9 11 13 15 17 18 18
12 12 16 20 18 16 17 16 7 7 7 2 2 1 2 2 6 9 10 9 9 9 4 11 15 17 17 14 15 16 18 19 20 21 22 23 22 20 18 18 18 18 18 19 18 18 17 16 16 15 14 13 12 13 13 13 14 15 16 16 16 16 16 16 16 16 15 15 14 13 12 12 11 13 13 12 11 11 9 8 10 12 15 18 19 20
11 11 12 15 17 20 23 23 21 17 10 4 4 5 6 5 5 5 4 4 6 6 11 17 20 18 14 14 18 21 21 23 23 22 21 21 19 16 14 13 14 14 15 17 18 18 18 17 16 16 16 17 17 17 16 16 16 16 15 16 17 17 17 17 16 14 15 16 15 14 14 12 12 14 13 12 12 10 9 9 11 12 15 18 20 22
12 9 10 12 11 14 17 19 22 26 25 18 10 6 4 5 5 6 8 7 7 11 16 19 20 18 14 15 17 20 22 22 21 18 18 19 17 16 14 12 12 11 12 16 19 20 21 21 20 19 19 19 19 18 17 17 17 17 16 16 17 18 19 19 17 16 15 15 15 14 14 13 13 14 14 14 14 13 12 12 13 13 15 17 20 23
12 10 10 12 11 12 13 12 13 17 21 23 23 18 10 1 4 5 8 10 11 11 10 12 14 13 14 16 18 18 18 18 16 14 14 14 14 14 14 13 13 12 12 15 20 22 23 23 23 23 24 23 22 20 20 19 18 18 18 19 19 19 19 19 18 17 16 16 16 16 16 15 15 15 16 16 16 15 15 16 16 16 16 17 19 21
12 11 11 12 12 12 12 12 12 12 12 15 19 22 21 15 7 2 5 10 12 10 6 5 6 4 7 13 19 21 21 21 21 19 19 19 18 18 19 19 20 21 21 23 26 25 24 24 25 25 26 26 25 24 23 21 20 19 19 20 20 19 19 18 18 18 18 18 17 17 17 17 16 16 16 17 17 17 18 18 19 20 20 20 20 19
13 13 12 12 13 13 12 12 13 12 10 8 10 15 20 22 19 12 7 6 5 4 4 4 1 2 0 6 12 17 19 21 22 22 24 25 26 27 28 29 31 31 29 27 26 24 24 25 25 26 26 26 25 24 23 22 21 21 20 20 19 19 18 18 19 19 19 20 19 19 19 18 18 18 18 18 19 19 19 20 22 22 23 23 22 20
12 15 14 14 14 12 11 14 11 8 6 6 9 12 15 19 22 21 16 12 10 8 6 5 5 3 2 1 4 10 13 14 15 16 18 20 22 23 24 24 24 23 22 21 21 21 22 23 24 25 25 24 25 24 23 22 21 21 21 20 19 18 18 18 19 20 20 20 20 21 20 20 20 20 20 21 21 21 22 23 24 24 25 25 24 23
9 10 12 13 11 8 10 13 8 2 3 7 9 8 8 11 17 19 18 17 18 19 18 14 12 11 10 8 6 9 11 12 14 15 16 19 20 19 18 16 14 16 17 17 16 17 17 18 19 20 21 21 21 22 23 22 21 20 19 18 17 17 18 19 21 21 20 20 21 21 21 21 21 21 21 22 22 23 24 25 26 26 26 26 26 26
10 7 9 12 12 10 10 10 6 2 3 7 8 7 7 8 10 10 11 14 16 16 18 20 18 16 14 12 11 11 12 13 14 14 15 16 16 14 13 11 12 15 16 14 14 14 13 13 15 17 17 17 17 17 17 17 18 18 17 16 17 17 18 20 21 20 19 20 20 20 20 20 20 20 21 21 21 23 23 24 25 27 27 26 26 27
10 10 10 11 12 11 10 8 6 5 4 5 9 12 11 11 12 12 9 9 12 11 11 16 17 15 14 14 14 14 12 10 12 15 16 16 14 13 12 11 13 15 15 14 15 16 15 15 16 17 17 18 18 18 17 17 17 17 16 16 15 15 17 19 18 18 18 19 20 20 21 21 22 23 23 23 24 25 25 25 26 27 28 29 29 30
9 10 10 12 13 12 12 12 8 2 3 4 6 11 12 11 12 12 8 8 11 11 9 10 11 13 15 15 13 11 7 6 10 14 15 14 13 12 11 11 12 14 15 16 16 17 17 16 16 15 15 16 16 16 17 18 18 18 17 15 15 16 18 20 19 19 20 22 22 23 24 26 26 27 28 28 29 30 30 29 29 30 31 31 32 32
9 10 11 15 16 13 12 13 8 1 4 3 4 8 11 11 11 9 6 9 13 12 10 11 11 11 12 12 10 9 9 11 14 15 14 14 14 13 11 11 11 12 13 14 15 15 15 15 15 14 14 14 14 14 15 15 16 17 18 18 18 21 23 24 25 25 26 27 28 29 30 31 32 32 32 32 32 33 33 33 32 33 33 33 33 33
7 9 12 15 16 13 11 11 6 4 5 6 6 5 8 12 13 8 4 9 14 12 11 11 11 9 8 9 10 12 14 17 18 16 14 15 15 14 13 13 12 12 12 13 13 14 14 15 15 15 16 16 16 17 17 18 19 20 21 23 24 26 28 30 30 31 31 32 33 33 34 34 35 35 35 34 33 34 34 34 34 35 35 36 36 36
4 6 10 12 13 11 11 12 7 3 2 5 5 5 7 9 9 6 6 8 10 11 11 10 9 9 10 13 16 18 18 20 20 18 16 17 16 16 16 15 15 15 15 15 16 16 17 18 19 19 20 21 21 22 23 23 25 26 27 28 30 31 32 33 34 34 35 35 36 36 36 36 37 37 37 36 36 36 36 36 36 36 36 37 37 37
4 6 7 6 7 8 9 11 6 0 2 5 2 5 8 8 6 7 9 9 9 11 11 8 7 8 13 19 21 19 17 19 21 20 19 18 17 17 18 17 17 18 18 19 20 20 21 22 23 23 24 25 26 27 27 28 30 31 32 33 34 35 35 36 36 37 38 39 39 39 39 39 40 40 40 40 40 40 39 39 38 37 38 38 38 38
4 6 5 3 3 4 5 3 2 2 1 2 2 6 12 12 9 8 8 8 9 8 7 7 7 7 10 14 17 17 17 18 21 21 20 20 19 19 20 20 20 21 22 23 25 25 25 26 27 28 29 30 31 32 32 33 35 36 37 39 39 39 40 40 41 41 42 42 42 42 42 43 43 44 44 45 45 44 43 42 41 40 40 40 40 40
5 4 2 2 2 1 2 3 4 3 3 2 2 4 9 13 11 6 6 8 9 7 5 6 8 9 9 10 13 16 18 18 19 21 21 21 22 22 22 23 24 24 25 27 28 28 29 30 31 32 34 35 36 37 38 39 40 41 41 42 42 42 43 44 44 45 45 45 45 46 47 47 48 48 48 48 49 49 48 47 45 44 43 43 43 42
5 4 1 1 2 1 2 2 3 3 3 3 3 5 7 9 8 7 8 12 13 11 9 8 10 12 14 14 16 17 18 19 20 21 22 23 24 24 24 25 26 27 28 29 30 31 32 33 35 36 38 39 40 41 42 43 43 44 44 44 44 45 46 46 47 47 48 48 48 48 49 49 49 49 49 49 50 51 51 51 50 48 46 45 45 44
3 4 2 2 2 1 1 1 3 3 3 3 5 6 7 9 9 10 11 13 14 13 12 11 11 13 16 18 19 19 20 21 21 22 23 24 25 26 27 27 28 28 30 31 33 34 34 35 37 38 39 40 41 42 43 43 43 44 44 44 45 46 46 47 47 48 48 47 47 48 48 47 47 46 46 46 46 47 48 48 49 49 48 47 47 46
3 2 1 1 2 3 4 4 3 4 5 4 3 3 5 7 8 9 10 10 10 11 12 12 13 15 16 18 19 20 21 22 22 22 24 25 26 27 28 28 28 29 31 33 33 34 34 35 36 37 38 38 38 39 39 39 39 39 39 40 41 42 43 43 44 44 44 44 44 45 45 45 45 45 45 44 43 42 43 43 44 47 48 48 48 47
1 1 2 2 2 3 5 5 4 4 4 4 4 4 3 4 5 6 7 8 9 10 12 12 13 14 15 16 17 18 20 21 21 22 22 24 25 26 27 26 27 28 30 30 30 30 31 31 32 32 33 33 34 34 34 33 32 33 33 34 35 36 36 37 38 38 39 39 39 39 39 39 40 41 42 43 43 43 42 41 41 43 44 45 46 48
1 2 4 3 3 3 4 6 6 4 4 5 5 5 4 4 3 4 4 5 7 10 12 12 13 14 15 17 17 17 19 20 21 22 21 21 23 25 24 23 24 25 26 26 25 25 26 27 27 28 29 30 30 29 28 27 27 27 28 29 30 30 31 32 33 34 35 35 35 35 34 34 34 35 36 38 40 41 42 42 42 42 42 42 43 45
3 3 2 2 2 3 4 7 6 4 4 6 5 4 4 3 2 2 3 4 6 8 11 13 13 14 16 17 17 16 17 19 20 20 19 19 20 21 21 20 20 21 22 22 22 22 23 24 24 26 26 26 25 24 24 25 26 27 27 28 28 29 31 32 33 34 34 33 33 32 31 31 30 30 31 33 36 38 39 40 42 42 42 42 42 43
Wind_Direction
197 208 211 217 217 213 215 216 221 238 252 238 227 222 223 226 218 219 220 197 191 205 209 215 219 219 224 224 215 209 207 209 211 212 212 212 215 217 218 217 214 215 216 212 216 225 229 232 231 217 209 217 219 214 205 200 199 197 191 186 186 186 177 169 166 161 158 156 150 144 138 126 112 95 80 66 54 45 41 39 38 37 27 19 6 333
202 217 218 219 221 220 218 217 225 244 251 236 234 229 221 225 223 214 210 190 187 208 213 214 221 223 222 222 223 214 207 210 212 212 211 211 214 216 217 217 214 213 214 210 213 222 228 232 230 215 207 211 212 211 205 201 202 201 196 190 186 185 177 169 168 165 160 158 153 146 138 127 116 102 85 67 53 43 38 36 35 33 27 22 18 5
209 223 222 220 219 218 213 211 223 234 231 231 238 239 226 223 222 207 194 180 185 206 218 218 220 225 223 223 225 213 208 216 215 212 212 212 212 213 215 215 213 213 213 209 213 220 227 234 231 216 206 205 205 206 201 199 199 199 200 192 184 183 178 173 169 166 163 162 159 151 143 131 120 111 91 69 55 45 36 33 30 27 24 20 19 13
213 225 220 215 210 206 207 209 220 226 226 229 232 234 230 219 217 208 198 204 208 208 220 226 222 224 225 222 221 212 212 218 216 213 214 213 211 211 215 214 211 213 213 209 211 216 224 237 237 220 207 203 202 200 195 197 196 194 196 191 183 180 182 180 169 162 166 166 163 154 145 137 128 120 93 70 59 48 36 30 26 22 19 16 15 11
222 225 208 202 201 204 214 218 218 221 222 225 227 230 230 219 216 217 207 207 212 212 222 231 228 225 220 213 216 216 214 215 214 213 213 212 210 210 215 212 209 211 212 209 210 213 218 235 244 233 216 203 194 191 190 196 196 192 191 190 189 183 184 186 167 159 171 170 163 158 147 141 127 106 81 65 55 46 34 26 22 17 14 11 9 6
230 215 189 194 205 207 214 217 214 217 222 223 223 226 232 229 219 213 192 194 212 217 215 217 228 229 214 210 217 214 210 212 213 212 212 211 208 212 217 213 208 209 210 208 209 213 215 228 244 243 230 205 185 182 186 194 197 195 192 192 195 188 188 191 170 157 170 170 163 165 154 144 124 93 66 50 36 28 20 14 11 8 5 2 1 0
227 209 200 210 215 209 214 220 216 216 224 229 222 220 231 238 228 216 201 204 221 226 208 207 226 241 211 209 215 208 207 211 211 212 211 208 205 210 216 213 209 208 209 210 209 214 216 222 238 245 245 229 196 184 185 191 196 198 196 193 197 194 194 197 174 155 165 170 169 171 161 152 125 78 36 18 4 359 355 351 350 349 348 349 352 354
221 211 208 210 210 212 216 222 217 210 222 234 222 211 221 228 229 221 217 222 228 237 213 205 225 245 221 208 204 198 204 207 206 209 207 206 206 210 215 213 210 208 208 211 210 215 219 222 234 244 251 249 226 201 193 194 198 199 196 192 196 195 195 199 176 154 163 171 174 181 178 173 106 23 357 354 349 344 342 341 340 337 337 338 340 344
215 219 212 203 206 213 218 222 216 209 219 233 221 206 213 219 223 221 225 232 233 234 229 215 222 237 230 210 195 190 202 205 203 206 204 203 203 206 216 216 211 208 208 211 210 214 220 224 233 240 244 245 238 222 208 201 201 201 193 189 192 191 191 193 173 155 167 175 179 195 205 223 311 344 343 346 343 340 338 337 336 332 331 331 329 331
210 218 213 206 205 212 220 220 209 206 216 222 215 212 212 215 220 222 226 233 235 234 237 227 217 226 225 196 185 187 203 203 200 206 204 204 204 204 215 217 210 207 209 210 211 213 217 223 232 236 236 237 236 231 219 203 198 198 192 185 187 188 188 189 175 163 168 176 188 205 219 244 284 325 333 337 335 335 335 332 331 328 324 321 315 311
219 211 207 204 206 216 218 207 199 205 212 211 209 214 210 213 217 223 229 233 236 235 239 229 214 228 226 181 188 200 208 202 200 208 202 203 213 211 214 217 209 206 210 209 210 211 214 222 228 232 230 227 229 232 226 209 194 191 190 186 189 190 189 198 199 181 168 173 195 212 225 246 273 304 315 324 327 328 330 328 326 323 320 319 314 304
230 216 208 206 213 226 222 204 207 212 214 214 218 213 205 207 210 216 223 224 228 235 236 226 212 223 225 191 202 201 192 190 195 211 205 196 208 211 211 214 209 208 210 209 212 212 215 224 227 231 231 221 220 229 231 224 215 213 211 207 209 207 201 206 212 205 193 191 202 217 229 247 268 288 300 313 320 322 324 324 323 321 318 318 316 308
223 218 208 207 214 221 218 212 205 207 214 215 217 215 206 202 206 215 217 213 224 231 228 218 206 215 220 201 192 171 163 173 175 198 208 193 196 206 210 213 209 212 212 211 214 213 219 230 231 235 237 222 218 227 232 228 223 228 225 217 215 216 209 206 202 209 216 210 208 221 232 248 264 277 294 306 312 316 318 320 321 320 318 318 314 309
211 213 208 207 212 210 212 214 199 196 209 210 212 214 209 203 206 221 221 214 223 217 206 208 203 217 216 169 154 172 183 187 180 187 199 195 199 205 209 212 211 213 214 212 214 214 222 234 239 243 248 248 242 236 235 228 219 223 224 215 207 208 213 211 203 205 217 220 221 229 236 248 262 272 287 297 302 307 311 315 316 317 319 320 315 308
206 210 206 205 207 204 210 221 216 202 207 210 216 219 216 216 217 226 232 231 236 215 195 197 201 224 217 172 172 204 206 202 203 205 205 204 206 202 201 208 210 209 206 207 215 220 225 234 242 246 247 250 251 244 239 237 233 233 232 220 200 198 222 220 212 211 218 225 228 235 244 250 259 268 278 286 292 298 304 309 313 316 320 321 317 309
216 219 210 207 207 205 209 218 224 221 214 212 219 226 224 224 225 240 277 330 319 284 200 195 207 215 204 176 188 193 180 189 197 198 200 199 191 184 184 191 198 202 205 213 223 228 231 236 241 243 242 242 243 243 239 235 234 238 242 237 219 212 229 221 214 213 218 225 227 235 248 252 256 264 272 278 285 291 298 305 309 315 320 319 313 329
220 229 211 201 205 209 210 214 217 225 227 213 216 225 227 229 233 244 254 227 260 280 222 204 212 192 165 184 200 189 171 165 172 178 182 178 180 188 190 188 194 203 211 219 227 234 237 238 240 242 242 242 244 246 245 239 236 237 245 246 233 221 219 217 216 215 218 224 226 233 245 249 252 258 264 273 281 287 295 301 304 310 312 295 258 329
226 244 218 192 202 209 210 218 220 224 233 224 219 224 223 225 236 247 253 207 208 237 225 211 212 202 191 186 187 188 177 161 171 190 188 179 186 196 199 200 197 198 204 211 221 233 238 239 240 241 241 241 241 242 243 241 238 233 237 243 236 223 216 217 218 216 215 219 224 232 242 245 249 254 261 272 280 286 292 295 298 304 295 256 236 262
222 246 235 202 211 212 208 222 226 222 229 233 237 232 222 224 229 232 237 227 220 233 230 216 211 219 224 194 179 178 171 167 171 181 182 176 180 190 203 215 218 218 222 224 229 238 243 245 246 245 243 240 236 235 238 239 236 231 228 231 231 226 228 230 224 215 212 215 222 230 237 242 249 256 266 275 280 284 288 286 289 293 271 233 213 196
216 234 229 210 218 214 205 218 225 222 220 228 243 242 231 235 236 229 229 233 233 227 230 226 213 202 125 152 175 171 166 179 173 157 162 168 169 187 207 219 228 237 243 247 251 255 259 261 260 258 256 251 240 229 226 229 233 232 226 224 228 228 231 233 227 217 213 215 223 231 239 248 256 264 271 277 278 280 281 278 282 281 251 220 196 184
218 225 226 217 217 215 211 215 219 221 217 217 225 230 230 231 232 236 239 244 244 235 228 227 206 120 109 127 159 169 171 188 181 163 167 175 188 208 218 231 241 250 257 263 267 269 271 273 274 270 263 258 251 245 241 240 242 242 231 217 219 223 221 222 223 220 218 220 225 233 242 250 258 266 271 274 273 272 274 276 281 273 243 224 207 202
217 222 229 226 218 218 224 221 216 223 227 222 220 225 230 228 226 234 233 235 243 247 247 236 179 119 154 150 152 171 180 185 178 170 174 179 203 220 228 244 250 254 259 263 269 271 271 276 277 269 262 262 263 261 253 241 241 245 238 217 211 218 218 217 218 220 222 224 225 229 239 247 256 264 266 265 263 265 268 269 271 261 238 226 212 203
216 222 234 235 228 226 232 226 215 223 235 236 228 226 230 229 230 238 240 235 240 247 258 256 240 155 181 174 163 167 167 161 160 171 189 198 211 219 220 231 233 232 235 235 247 255 253 260 261 250 231 230 241 229 220 218 223 231 226 210 200 205 207 201 197 204 213 218 224 230 239 247 253 255 254 254 260 266 266 258 256 248 232 221 207 203
211 218 239 241 238 237 235 227 225 229 234 236 234 230 234 233 230 236 244 246 246 246 250 252 242 168 188 188 170 160 162 162 164 177 197 201 199 196 191 196 200 196 195 192 186 189 188 201 219 188 150 165 190 197 202 208 213 208 197 188 181 177 180 185 194 208 215 218 224 230 233 236 238 240 245 251 259 265 263 253 248 239 229 220 206 205
204 211 236 242 242 239 228 217 222 227 228 231 232 234 238 237 235 240 242 242 247 244 236 241 233 151 188 181 158 163 177 178 177 181 188 183 179 183 178 173 178 180 178 171 155 148 149 149 144 132 147 165 169 181 198 204 210 210 198 187 176 167 171 181 189 197 201 201 203 207 211 217 227 242 252 255 256 259 259 253 244 237 232 225 213 209
206 203 220 237 255 244 217 244 277 256 233 226 228 235 237 234 237 245 243 238 241 239 239 238 172 129 160 158 146 164 181 181 181 177 180 182 181 185 183 179 181 181 178 173 161 154 151 150 149 149 151 152 155 165 171 167 171 184 185 181 170 163 168 174 177 183 185 183 185 190 200 218 245 259 261 261 259 259 262 256 242 236 236 232 224 218
226 219 216 227 254 228 183 329 330 312 255 225 222 233 235 231 235 241 242 243 244 244 248 237 177 144 141 152 164 166 162 175 181 174 178 185 184 187 189 187 186 181 177 177 173 169 165 161 160 161 162 165 167 170 170 167 165 159 167 174 172 172 179 182 186 193 196 199 202 203 212 237 257 261 259 254 250 251 258 257 244 237 237 236 232 228
229 226 224 224 223 202 211 256 331 342 296 226 216 225 224 227 230 232 236 242 250 251 242 185 162 150 140 155 191 194 173 169 170 171 178 181 180 186 190 186 184 182 179 180 182 181 180 179 176 172 172 174 171 172 174 178 181 177 178 186 187 184 185 185 187 192 198 206 210 215 235 258 264 260 254 249 247 249 255 260 251 242 240 238 236 233
217 220 226 229 231 233 238 239 254 346 4 63 136 109 93 179 204 213 229 233 241 247 181 135 150 151 143 162 192 201 194 181 175 179 183 184 184 184 182 182 183 183 182 184 188 191 193 194 193 189 184 178 172 171 170 169 174 178 181 186 189 189 191 193 193 195 201 210 217 228 245 257 258 255 253 253 254 252 253 261 259 249 244 241 238 236
219 220 217 222 233 241 248 249 243 249 273 326 22 28 41 67 118 124 120 162 184 166 137 147 159 159 171 200 205 201 195 186 185 189 186 184 182 171 159 162 169 169 176 185 191 196 199 200 200 198 193 186 180 179 179 177 179 183 184 185 188 193 200 205 206 207 212 219 225 235 243 244 244 249 256 264 268 267 266 269 265 257 251 246 241 237
214 221 214 212 226 234 241 252 248 243 249 258 273 311 18 61 78 95 100 112 136 137 146 168 176 176 193 216 218 209 196 186 186 186 183 183 177 164 153 149 153 158 169 184 193 197 200 202 200 198 195 192 189 189 190 191 191 193 194 196 197 200 204 208 211 215 223 228 230 232 233 232 235 244 254 263 269 273 275 272 268 265 259 253 247 242
206 222 221 212 227 231 222 229 234 234 244 251 254 257 250 192 54 75 108 116 124 132 151 178 186 194 206 206 202 197 185 177 170 160 164 171 163 155 147 139 146 153 158 179 195 201 204 205 205 203 199 195 194 195 195 196 196 197 197 198 201 203 207 212 217 223 229 232 232 231 230 230 233 238 247 255 261 266 269 269 270 269 266 262 256 250
204 221 225 211 222 236 224 216 217 216 227 240 242 242 238 233 236 203 127 125 126 127 131 153 164 200 230 211 196 185 175 174 174 171 172 173 173 177 177 176 182 187 191 200 205 207 208 208 208 209 207 203 202 202 202 200 199 198 198 200 203 206 210 215 221 226 229 230 231 231 231 234 236 239 244 250 255 260 263 266 269 270 271 270 266 260
214 220 226 218 226 238 222 205 213 224 229 229 221 223 228 229 229 224 199 163 142 134 147 166 172 22 9 208 204 200 196 196 198 201 201 200 203 206 204 203 205 207 210 214 214 212 212 209 209 210 209 208 207 206 208 208 205 202 202 205 208 210 214 218 222 224 227 229 229 229 231 234 237 241 244 247 251 255 259 263 265 266 268 271 273 271
227 223 225 228 237 239 203 185 198 219 220 213 217 222 225 224 226 229 225 220 235 253 251 250 260 245 206 235 217 205 210 214 215 218 219 217 219 220 216 211 210 209 211 213 211 210 210 208 207 208 208 208 207 205 204 205 206 207 207 208 211 214 218 222 224 226 228 231 232 231 234 237 241 245 248 250 253 255 257 260 262 263 264 265 269 271
217 219 226 231 237 229 195 192 202 205 196 220 229 229 221 219 228 236 236 232 238 249 254 252 250 249 252 263 244 207 201 211 215 214 214 212 212 216 218 213 207 209 212 210 208 208 208 208 208 208 207 208 210 210 208 206 208 212 215 217 218 221 224 227 231 232 233 236 237 237 240 245 249 252 255 257 259 259 260 261 262 263 265 266 267 268
232 244 248 239 232 226 215 207 201 199 229 232 226 210 193 196 205 213 224 228 227 234 243 242 242 248 247 235 224 212 203 207 214 216 218 218 215 218 223 216 208 213 217 218 221 225 228 230 229 228 224 222 222 222 219 218 219 221 226 232 233 234 236 237 238 237 237 239 242 244 247 250 253 255 258 261 263 263 263 263 263 265 268 270 271 271
240 248 251 243 234 238 245 233 212 217 221 210 219 222 217 212 203 193 197 208 194 191 223 232 226 225 224 213 207 206 202 207 221 226 228 229 228 229 232 225 214 215 219 223 231 237 240 241 240 240 239 237 237 236 239 245 245 240 238 240 241 242 245 246 245 244 244 246 247 249 252 254 257 260 262 264 265 265 266 265 264 265 268 271 273 274
236 238 238 242 242 246 255 254 251 253 112 140 208 219 215 214 209 201 202 192 173 171 192 200 190 196 205 203 197 191 181 197 231 239 240 240 238 234 232 224 212 208 212 217 224 231 234 236 238 237 237 239 243 247 253 259 259 255 253 253 251 250 252 254 256 257 258 259 259 261 262 263 264 265 267 268 269 270 270 269 267 267 268 269 271 272
237 240 241 247 250 250 254 256 258 145 129 171 218 214 203 190 181 185 203 187 166 159 169 168 158 169 184 180 176 178 174 189 218 236 242 244 243 236 231 227 221 215 214 215 221 227 231 236 241 243 243 244 245 248 252 255 257 258 259 258 256 255 257 261 264 265 266 266 267 267 268 268 268 269 269 270 270 271 272 271 271 271 270 271 271 270
237 245 245 250 255 257 259 260 249 138 158 213 230 222 201 182 175 177 188 179 168 158 160 164 156 155 160 160 181 203 200 201 216 230 234 238 240 235 232 232 231 231 232 231 234 239 244 249 252 255 257 257 256 256 256 257 258 260 262 263 263 264 266 268 269 269 269 270 269 269 269 269 269 270 269 269 269 269 269 269 270 271 271 271 270 269
258 262 250 249 257 262 261 259 249 147 169 241 240 211 187 169 167 163 139 146 158 153 151 155 153 156 165 177 198 215 215 211 218 224 226 233 238 237 239 242 242 245 247 248 249 252 254 257 258 259 261 262 264 266 267 268 268 269 270 271 270 270 271 273 274 274 273 273 272 271 271 270 270 270 269 268 267 266 266 267 267 267 268 268 268 267
274 272 265 259 259 263 260 252 247 289 270 258 232 180 180 163 140 143 140 135 138 142 145 145 143 157 179 194 208 221 222 218 221 225 230 238 244 246 248 251 255 259 261 262 263 263 264 266 266 267 268 270 271 272 274 275 276 278 278 277 276 275 275 275 276 276 275 274 274 273 273 272 272 271 270 269 268 266 265 265 264 264 265 265 264 264
269 267 283 296 259 277 300 260 192 75 16 236 178 181 193 190 175 160 148 135 135 140 145 151 153 158 175 196 215 225 226 224 226 231 238 244 249 253 257 259 263 267 270 272 273 274 275 276 277 278 279 279 279 279 279 279 280 281 281 280 279 277 277 276 276 275 275 274 273 272 271 271 271 270 270 269 267 266 264 263 262 262 262 263 262 260
263 259 305 351 248 243 47 100 151 128 88 101 132 169 193 204 203 179 144 143 149 150 157 179 196 197 197 211 227 232 234 234 235 240 246 250 254 259 263 266 269 271 273 275 276 278 280 281 282 283 283 283 284 284 283 284 284 283 282 281 279 278 277 276 276 275 275 274 272 271 270 270 269 269 268 267 266 266 265 264 263 261 260 261 261 259
256 249 264 331 267 222 96 119 150 142 139 164 163 144 162 187 187 158 159 177 183 186 198 221 233 227 226 235 240 240 242 245 246 250 253 257 261 264 266 269 272 274 276 278 280 282 284 285 286 286 286 287 287 288 288 288 287 286 285 284 283 282 281 280 279 279 278 278 277 275 274 273 271 270 268 266 265 264 264 264 263 261 259 258 258 257
268 250 202 169 198 169 115 165 159 142 150 194 204 190 186 193 190 182 195 210 215 218 226 238 240 232 230 237 242 245 248 249 252 256 258 261 264 267 269 271 274 277 279 280 281 283 284 285 286 286 286 287 287 287 287 288 288 288 288 288 287 286 285 284 284 283 282 281 279 278 276 275 273 271 269 267 265 263 262 261 260 259 256 254 254 255
277 254 195 191 213 188 188 202 177 136 126 127 153 184 205 220 222 219 226 235 234 231 232 235 235 233 235 240 245 249 252 253 255 258 262 265 268 270 272 274 277 279 279 280 281 283 284 284 285 285 286 286 287 287 288 290 291 292 292 291 290 289 287 286 285 284 283 282 281 279 277 275 273 271 268 266 264 262 260 258 256 255 255 253 252 252
265 278 262 233 182 172 190 193 164 142 146 146 138 136 159 202 218 222 229 236 235 233 234 237 239 241 243 247 251 256 261 263 263 265 267 270 272 274 276 278 280 280 280 281 282 284 284 285 286 287 288 289 290 291 293 295 296 296 295 293 291 290 289 288 286 285 284 283 282 280 279 277 275 272 270 266 263 260 258 257 254 253 252 251 249 248
280 294 278 235 197 200 204 182 164 166 186 183 165 148 146 159 183 201 211 225 238 241 242 244 250 256 258 257 258 263 268 270 270 270 272 274 276 277 278 280 280 280 280 282 284 284 285 286 287 288 290 291 293 295 299 302 302 301 298 296 295 294 293 292 290 289 288 287 285 284 281 279 276 274 272 270 266 262 259 256 254 252 250 248 248 247
246 240 246 205 206 218 190 174 172 182 195 194 185 166 164 173 188 215 231 246 254 256 255 254 257 263 267 267 265 264 268 272 274 275 276 276 276 277 278 279 280 281 282 283 283 284 285 287 289 291 292 294 298 303 307 307 304 301 299 298 298 297 295 294 293 291 290 289 289 287 286 283 279 275 271 269 268 266 262 257 254 252 250 248 246 246
Height
3091 3091 3091 3091 3090 3091 3092 3092 3092 3091 3090 3090 3090 3090 3090 3089 3089 3090 3090 3091 3094 3096 3097 3098 3099 3100 3101 3102 3102 3104 3105 3107 3109 3110 3111 3112 3112 3112 3112 3112 3112 3114 3114 3114 3114 3114 3114 3112 3112 3116 3119 3119 3118 3120 3121 3121 3123 3123 3125 3126 3126 3127 3128 3130 3132 3133 3135 3136 3137 3138 3140 3140 3141 3142 3143 3143 3143 3142 3142 3142 3141 3140 3140 3139 3139 3139
3090 3089 3088 3089 3089 3090 3091 3091 3091 3091 3091 3091 3090 3089 3089 3088 3087 3088 3089 3090 3093 3095 3095 3096 3097 3098 3099 3100 3101 3101 3102 3104 3106 3107 3108 3110 3110 3110 3110 3110 3111 3112 3112 3113 3113 3113 3112 3109 3110 3115 3118 3117 3118 3119 3120 3121 3122 3122 3124 3125 3125 3126 3127 3128 3131 3132 3134 3135 3136 3138 3139 3140 3141 3142 3142 3143 3143 3142 3142 3142 3141 3141 3140 3140 3139 3139
3088 3087 3087 3088 3088 3089 3089 3090 3090 3091 3092 3092 3091 3089 3088 3087 3086 3086 3088 3090 3092 3094 3094 3095 3095 3095 3096 3098 3098 3099 3100 3102 3104 3105 3106 3107 3108 3108 3108 3108 3109 3110 3111 3112 3112 3112 3110 3106 3107 3113 3116 3116 3116 3117 3118 3119 3120 3121 3122 3123 3124 3125 3126 3127 3129 3132 3133 3135 3136 3137 3138 3139 3140 3141 3142 3142 3142 3142 3142 3142 3141 3141 3140 3140 3140 3139
3086 3084 3085 3086 3086 3087 3088 3089 3090 3090 3091 3091 3090 3089 3087 3086 3085 3084 3087 3090 3091 3092 3093 3093 3093 3093 3094 3095 3096 3097 3098 3100 3102 3102 3104 3105 3106 3106 3106 3106 3106 3108 3109 3111 3110 3111 3109 3105 3105 3110 3113 3115 3115 3116 3117 3117 3118 3119 3120 3122 3123 3123 3125 3126 3127 3129 3133 3134 3135 3137 3138 3139 3139 3140 3141 3142 3142 3142 3142 3142 3141 3141 3141 3140 3140 3140
3083 3082 3083 3085 3085 3086 3088 3088 3089 3089 3089 3089 3089 3087 3085 3084 3084 3084 3087 3089 3091 3091 3091 3091 3091 3091 3092 3093 3094 3096 3097 3098 3099 3100 3101 3102 3103 3104 3103 3103 3104 3106 3108 3109 3109 3109 3108 3105 3104 3106 3110 3113 3115 3115 3116 3116 3117 3118 3119 3120 3121 3122 3124 3126 3125 3127 3132 3134 3135 3137 3137 3138 3139 3140 3141 3141 3142 3142 3142 3142 3141 3141 3141 3140 3140 3140
3082 3081 3082 3083 3084 3085 3087 3087 3087 3088 3087 3087 3086 3086 3084 3083 3083 3084 3086 3089 3089 3088 3088 3090 3089 3086 3088 3091 3092 3093 3094 3095 3097 3097 3098 3100 3101 3101 3101 3101 3103 3105 3107 3108 3109 3109 3108 3106 3103 3102 3104 3110 3114 3116 3116 3116 3116 3118 3119 3120 3120 3121 3124 3126 3124 3126 3132 3134 3135 3137 3137 3138 3138 3139 3140 3140 3141 3141 3141 3141 3141 3141 3141 3140 3140 3140
3080 3079 3080 3083 3084 3084 3085 3085 3085 3086 3086 3084 3083 3084 3084 3083 3083 3083 3085 3087 3086 3084 3085 3087 3086 3083 3084 3087 3088 3090 3092 3093 3095 3095 3096 3098 3100 3100 3100 3101 3102 3104 3106 3107 3108 3108 3107 3107 3102 3099 3101 3105 3111 3114 3115 3115 3115 3117 3119 3120 3121 3123 3124 3127 3125 3125 3132 3134 3135 3137 3137 3138 3139 3139 3140 3140 3140 3141 3141 3141 3141 3141 3141 3140 3140 3139
3078 3078 3079 3081 3082 3083 3083 3083 3083 3084 3084 3081 3081 3082 3083 3083 3084 3083 3084 3084 3083 3084 3085 3086 3085 3082 3081 3083 3085 3088 3090 3091 3093 3094 3095 3097 3099 3100 3100 3100 3102 3103 3105 3106 3107 3107 3107 3107 3103 3100 3101 3102 3104 3108 3111 3113 3114 3114 3117 3120 3123 3124 3125 3128 3127 3126 3131 3134 3135 3137 3137 3138 3138 3138 3139 3139 3139 3140 3140 3140 3140 3140 3140 3140 3140 3139
3077 3078 3078 3080 3081 3081 3081 3080 3081 3082 3082 3080 3080 3081 3082 3083 3083 3084 3084 3083 3082 3084 3083 3082 3083 3081 3079 3082 3084 3086 3088 3089 3090 3092 3093 3095 3097 3099 3098 3099 3100 3102 3104 3104 3106 3107 3106 3106 3104 3102 3102 3100 3099 3102 3106 3111 3112 3111 3115 3118 3121 3123 3125 3128 3127 3127 3131 3134 3135 3137 3138 3138 3138 3138 3138 3138 3138 3138 3139 3139 3139 3139 3139 3139 3139 3139
3075 3076 3077 3078 3079 3079 3078 3078 3079 3080 3080 3080 3081 3081 3081 3082 3082 3083 3082 3082 3082 3082 3079 3079 3081 3078 3077 3080 3082 3084 3085 3086 3089 3090 3091 3092 3094 3096 3096 3096 3099 3101 3102 3101 3102 3105 3105 3105 3104 3103 3103 3101 3099 3099 3103 3109 3111 3112 3115 3118 3120 3123 3126 3128 3126 3127 3130 3133 3135 3136 3137 3137 3137 3137 3137 3137 3137 3137 3138 3138 3138 3138 3138 3138 3138 3138
3074 3074 3075 3076 3076 3076 3077 3077 3078 3079 3079 3080 3080 3080 3080 3080 3081 3082 3081 3081 3081 3079 3077 3077 3079 3077 3076 3079 3081 3082 3083 3085 3088 3089 3089 3090 3091 3093 3094 3095 3097 3100 3100 3100 3101 3102 3102 3103 3104 3102 3101 3101 3100 3099 3102 3107 3111 3115 3120 3122 3123 3126 3128 3129 3129 3129 3130 3132 3134 3135 3135 3135 3135 3136 3136 3136 3136 3136 3136 3137 3137 3137 3137 3136 3136 3136
3073 3073 3074 3074 3074 3075 3076 3076 3077 3078 3078 3079 3079 3078 3078 3078 3079 3079 3079 3079 3079 3077 3075 3076 3078 3078 3077 3079 3079 3080 3082 3084 3086 3087 3087 3088 3089 3091 3094 3095 3096 3098 3099 3100 3100 3100 3100 3101 3099 3096 3096 3098 3100 3101 3104 3110 3115 3119 3122 3123 3124 3126 3127 3128 3130 3130 3130 3130 3132 3133 3133 3134 3134 3134 3135 3135 3135 3135 3135 3136 3136 3136 3135 3135 3135 3135
3071 3072 3072 3073 3073 3074 3075 3075 3075 3077 3077 3078 3077 3076 3076 3076 3077 3076 3075 3075 3075 3074 3074 3075 3076 3077 3077 3078 3078 3079 3081 3082 3084 3085 3086 3088 3089 3091 3093 3095 3096 3096 3098 3099 3099 3100 3099 3096 3092 3092 3096 3100 3103 3106 3110 3115 3119 3120 3121 3122 3123 3124 3125 3126 3128 3129 3130 3129 3130 3131 3132 3132 3133 3133 3134 3134 3134 3134 3135 3135 3135 3134 3134 3134 3133 3133
3069 3070 3070 3071 3072 3072 3073 3073 3072 3074 3075 3075 3074 3073 3074 3074 3076 3076 3072 3071 3071 3072 3074 3076 3076 3076 3075 3077 3079 3080 3080 3082 3084 3084 3085 3087 3088 3089 3092 3095 3096 3096 3097 3098 3098 3098 3096 3092 3091 3095 3099 3102 3105 3110 3114 3117 3119 3118 3117 3118 3121 3122 3123 3125 3126 3127 3128 3128 3129 3130 3130 3131 3131 3132 3133 3133 3133 3133 3134 3134 3134 3134 3133 3133 3132 3131
3065 3066 3067 3068 3069 3070 3071 3070 3070 3072 3073 3073 3072 3072 3072 3072 3075 3075 3071 3070 3070 3070 3072 3075 3076 3075 3074 3076 3078 3080 3079 3081 3083 3084 3085 3086 3086 3089 3092 3093 3094 3094 3094 3095 3095 3095 3094 3093 3095 3097 3099 3102 3105 3109 3113 3115 3117 3116 3115 3116 3119 3121 3123 3124 3125 3126 3126 3127 3128 3129 3130 3130 3130 3131 3131 3131 3132 3133 3133 3133 3133 3133 3132 3132 3131 3131
3062 3062 3063 3065 3067 3068 3069 3069 3070 3071 3070 3071 3072 3071 3071 3071 3072 3072 3071 3072 3073 3072 3071 3073 3074 3075 3075 3075 3077 3079 3079 3080 3084 3086 3086 3087 3088 3089 3089 3089 3091 3091 3092 3093 3092 3091 3093 3094 3095 3097 3098 3101 3103 3106 3110 3113 3115 3116 3116 3117 3119 3120 3121 3122 3122 3124 3125 3126 3127 3128 3129 3129 3129 3130 3130 3130 3131 3132 3132 3133 3133 3133 3132 3131 3131 3131
3062 3061 3061 3063 3065 3066 3068 3068 3070 3070 3068 3069 3070 3070 3070 3071 3071 3071 3071 3073 3075 3075 3071 3071 3073 3074 3075 3077 3077 3079 3081 3082 3084 3085 3086 3087 3087 3086 3084 3085 3087 3088 3090 3092 3090 3090 3091 3092 3094 3096 3097 3099 3102 3105 3108 3110 3112 3115 3116 3117 3118 3118 3120 3120 3120 3121 3123 3124 3126 3127 3128 3128 3129 3129 3129 3129 3130 3131 3131 3132 3132 3132 3132 3131 3131 3131
3061 3061 3060 3062 3063 3065 3066 3067 3068 3068 3068 3068 3068 3068 3069 3071 3071 3071 3070 3070 3073 3073 3070 3070 3072 3071 3073 3076 3077 3079 3082 3081 3081 3082 3083 3084 3084 3083 3083 3083 3084 3087 3089 3090 3090 3089 3090 3091 3093 3095 3096 3099 3103 3104 3106 3106 3107 3111 3113 3115 3115 3116 3118 3119 3119 3120 3122 3123 3125 3126 3127 3127 3127 3127 3128 3128 3129 3130 3130 3131 3131 3131 3131 3131 3131 3131
3061 3061 3061 3062 3063 3063 3065 3067 3066 3066 3067 3067 3067 3068 3068 3068 3069 3070 3070 3070 3070 3070 3068 3067 3069 3070 3071 3073 3075 3078 3079 3078 3079 3080 3081 3082 3083 3083 3084 3084 3084 3085 3086 3088 3088 3088 3088 3090 3092 3093 3094 3097 3100 3102 3103 3104 3104 3106 3110 3112 3114 3115 3117 3118 3119 3119 3120 3122 3124 3125 3125 3126 3126 3127 3127 3128 3128 3129 3130 3130 3131 3131 3131 3131 3131 3131
3061 3061 3061 3062 3062 3062 3064 3064 3064 3064 3066 3067 3067 3067 3067 3066 3067 3068 3068 3069 3067 3067 3067 3067 3066 3069 3071 3072 3073 3075 3076 3076 3078 3080 3081 3082 3083 3083 3084 3084 3084 3084 3085 3086 3087 3088 3088 3089 3090 3091 3092 3094 3097 3099 3101 3103 3104 3104 3107 3111 3112 3113 3115 3116 3118 3119 3120 3121 3122 3124 3124 3125 3125 3126 3127 3127 3128 3128 3129 3130 3130 3130 3130 3131 3131 3131
3060 3060 3060 3061 3061 3060 3060 3060 3061 3062 3063 3064 3066 3066 3066 3066 3067 3067 3068 3068 3066 3063 3065 3065 3065 3070 3073 3072 3073 3075 3076 3076 3077 3079 3081 3081 3082 3083 3084 3084 3084 3085 3086 3086 3087 3088 3089 3089 3089 3090 3091 3092 3094 3097 3100 3102 3104 3104 3106 3110 3112 3112 3113 3115 3117 3118 3119 3120 3122 3123 3124 3124 3125 3126 3126 3127 3127 3127 3128 3129 3129 3129 3129 3130 3130 3131
3058 3058 3059 3060 3060 3059 3058 3058 3060 3061 3060 3061 3062 3063 3065 3065 3066 3066 3066 3067 3066 3063 3062 3062 3065 3071 3074 3072 3073 3075 3075 3076 3077 3079 3080 3081 3081 3082 3083 3084 3085 3086 3087 3087 3088 3089 3089 3089 3089 3090 3090 3091 3092 3094 3097 3100 3102 3103 3104 3108 3111 3111 3111 3113 3115 3117 3118 3119 3121 3122 3123 3124 3124 3125 3126 3126 3126 3126 3127 3128 3127 3128 3128 3129 3129 3130
3056 3057 3058 3058 3058 3057 3056 3057 3058 3059 3059 3060 3060 3061 3063 3063 3064 3064 3063 3064 3065 3064 3063 3062 3064 3071 3074 3072 3073 3075 3075 3075 3077 3079 3079 3080 3081 3082 3084 3085 3086 3087 3088 3089 3089 3090 3090 3090 3090 3090 3091 3092 3092 3094 3096 3098 3100 3101 3102 3105 3108 3109 3109 3111 3113 3115 3117 3118 3120 3121 3122 3123 3124 3124 3125 3126 3125 3126 3126 3126 3126 3127 3128 3128 3129 3130
3055 3057 3057 3056 3056 3056 3056 3056 3058 3059 3059 3060 3059 3060 3061 3061 3063 3063 3063 3064 3064 3063 3064 3063 3064 3070 3073 3072 3074 3075 3075 3075 3077 3078 3079 3080 3082 3083 3084 3085 3087 3088 3089 3089 3090 3090 3091 3091 3092 3092 3093 3094 3095 3096 3097 3098 3099 3100 3102 3104 3107 3108 3109 3110 3113 3115 3116 3118 3119 3120 3122 3123 3123 3124 3124 3125 3125 3125 3125 3124 3125 3126 3127 3128 3129 3130
3055 3057 3057 3056 3055 3055 3054 3054 3056 3058 3059 3059 3059 3060 3060 3061 3062 3062 3063 3064 3064 3063 3064 3064 3066 3069 3071 3072 3074 3074 3074 3076 3077 3078 3079 3081 3083 3084 3085 3086 3087 3089 3089 3090 3091 3092 3092 3093 3093 3094 3095 3096 3096 3096 3098 3099 3099 3100 3102 3104 3106 3107 3108 3110 3113 3114 3116 3117 3118 3120 3121 3122 3123 3123 3123 3124 3124 3124 3124 3123 3124 3125 3126 3127 3128 3129
3054 3055 3056 3055 3054 3054 3054 3055 3057 3058 3057 3057 3058 3059 3059 3060 3061 3062 3062 3063 3062 3063 3064 3064 3066 3070 3071 3072 3073 3073 3075 3076 3077 3078 3080 3081 3083 3083 3085 3086 3087 3088 3089 3090 3091 3092 3093 3094 3095 3096 3096 3096 3097 3097 3098 3099 3100 3101 3103 3105 3106 3107 3109 3110 3112 3114 3115 3117 3118 3119 3120 3121 3122 3122 3122 3123 3123 3123 3123 3123 3123 3124 3125 3126 3127 3128
3053 3055 3056 3056 3055 3055 3057 3059 3060 3059 3056 3056 3057 3058 3059 3059 3060 3061 3062 3062 3061 3062 3062 3063 3064 3067 3070 3072 3072 3074 3076 3076 3076 3078 3080 3081 3082 3083 3084 3085 3086 3087 3088 3089 3091 3092 3093 3094 3095 3096 3096 3097 3097 3098 3099 3100 3101 3102 3104 3105 3107 3108 3109 3111 3112 3113 3115 3116 3117 3118 3119 3120 3121 3121 3121 3121 3122 3122 3122 3123 3123 3123 3124 3125 3126 3127
3053 3054 3055 3056 3057 3057 3059 3060 3060 3058 3056 3056 3056 3058 3059 3058 3059 3061 3061 3061 3061 3061 3062 3063 3064 3065 3069 3071 3072 3073 3075 3076 3077 3078 3079 3080 3081 3082 3084 3085 3086 3087 3088 3089 3090 3091 3092 3094 3095 3096 3096 3097 3098 3098 3099 3101 3102 3103 3104 3106 3107 3108 3109 3110 3111 3113 3114 3115 3116 3117 3118 3119 3120 3120 3120 3120 3120 3120 3121 3122 3122 3123 3123 3124 3125 3126
3052 3053 3053 3055 3056 3057 3058 3060 3061 3059 3057 3057 3058 3059 3058 3058 3058 3060 3060 3060 3061 3062 3062 3063 3065 3067 3069 3070 3070 3071 3073 3075 3076 3077 3077 3079 3080 3082 3083 3084 3085 3086 3087 3088 3089 3090 3091 3092 3093 3095 3095 3097 3098 3099 3099 3101 3102 3103 3104 3106 3107 3108 3109 3110 3111 3112 3112 3113 3114 3116 3117 3118 3118 3118 3117 3118 3119 3119 3119 3120 3121 3121 3122 3123 3124 3125
3051 3052 3052 3054 3055 3055 3056 3058 3060 3060 3059 3059 3060 3059 3059 3058 3059 3059 3059 3059 3060 3061 3062 3062 3064 3066 3068 3068 3069 3070 3071 3073 3075 3076 3077 3079 3080 3082 3083 3084 3085 3086 3086 3087 3088 3088 3090 3091 3092 3093 3094 3095 3096 3097 3099 3100 3101 3103 3104 3105 3106 3107 3109 3110 3110 3111 3111 3112 3113 3114 3115 3116 3116 3116 3116 3116 3117 3116 3116 3117 3119 3120 3120 3121 3122 3123
3050 3050 3052 3053 3054 3054 3054 3055 3056 3057 3058 3058 3059 3059 3059 3059 3059 3059 3058 3059 3060 3061 3061 3062 3063 3063 3065 3067 3068 3070 3071 3073 3074 3076 3077 3078 3079 3080 3082 3084 3084 3085 3085 3085 3085 3086 3087 3089 3090 3091 3092 3093 3094 3096 3097 3098 3099 3101 3102 3104 3105 3106 3107 3108 3109 3109 3110 3111 3111 3112 3113 3114 3115 3115 3115 3115 3114 3114 3115 3116 3117 3118 3119 3120 3120 3121
3049 3049 3051 3052 3053 3053 3053 3054 3054 3055 3057 3057 3057 3058 3059 3059 3059 3059 3058 3058 3060 3061 3062 3062 3062 3062 3063 3064 3066 3069 3072 3074 3075 3076 3077 3078 3078 3079 3081 3082 3083 3082 3082 3082 3082 3083 3085 3087 3088 3089 3090 3091 3092 3094 3095 3097 3098 3099 3100 3102 3103 3104 3105 3106 3107 3108 3108 3109 3109 3110 3111 3112 3113 3113 3114 3114 3114 3114 3115 3115 3116 3117 3117 3118 3118 3119
3048 3049 3049 3051 3051 3051 3052 3054 3054 3055 3056 3055 3054 3056 3058 3058 3059 3059 3059 3059 3059 3060 3062 3062 3062 3062 3062 3063 3064 3066 3069 3070 3072 3073 3073 3074 3074 3074 3075 3076 3076 3076 3076 3077 3079 3081 3083 3085 3086 3088 3089 3090 3091 3092 3093 3094 3096 3098 3099 3100 3101 3102 3103 3104 3104 3105 3106 3107 3107 3108 3109 3110 3111 3111 3112 3112 3113 3113 3114 3114 3114 3114 3115 3115 3115 3116
3047 3048 3049 3050 3050 3050 3050 3052 3054 3054 3052 3051 3052 3053 3055 3057 3058 3059 3059 3059 3059 3060 3061 3062 3062 3062 3063 3064 3065 3066 3067 3068 3068 3069 3070 3071 3070 3070 3070 3071 3071 3072 3074 3076 3078 3080 3082 3083 3085 3086 3087 3089 3090 3091 3092 3093 3095 3096 3097 3098 3099 3100 3101 3101 3102 3103 3104 3105 3106 3106 3107 3108 3109 3109 3110 3110 3111 3111 3112 3112 3112 3112 3112 3112 3113 3113
3046 3047 3048 3049 3049 3049 3049 3049 3051 3051 3049 3049 3050 3052 3053 3055 3056 3057 3058 3059 3059 3060 3061 3062 3062 3063 3063 3065 3066 3067 3068 3069 3070 3071 3072 3072 3072 3072 3072 3072 3073 3074 3076 3077 3079 3081 3082 3083 3084 3085 3087 3088 3088 3089 3090 3091 3093 3094 3095 3096 3097 3098 3099 3099 3100 3101 3102 3103 3103 3104 3105 3106 3107 3107 3108 3108 3109 3109 3110 3110 3109 3110 3110 3110 3110 3111
3044 3045 3047 3048 3048 3048 3047 3047 3048 3047 3047 3048 3049 3051 3052 3054 3054 3056 3057 3058 3058 3059 3060 3061 3062 3063 3064 3065 3067 3067 3069 3070 3070 3071 3071 3071 3072 3072 3072 3073 3074 3076 3077 3078 3079 3080 3081 3082 3083 3084 3085 3087 3088 3088 3088 3089 3090 3092 3093 3094 3095 3096 3097 3097 3098 3099 3100 3101 3102 3102 3103 3104 3105 3105 3106 3106 3107 3107 3108 3108 3108 3107 3107 3108 3108 3108
3043 3044 3045 3046 3047 3047 3046 3046 3047 3047 3048 3048 3049 3050 3051 3052 3053 3055 3055 3056 3057 3058 3059 3059 3061 3062 3063 3065 3066 3067 3068 3069 3070 3070 3070 3071 3072 3072 3073 3073 3074 3075 3077 3078 3079 3080 3081 3082 3083 3084 3085 3086 3087 3088 3088 3089 3089 3090 3091 3092 3093 3094 3094 3094 3095 3096 3098 3098 3099 3100 3101 3101 3102 3102 3103 3104 3104 3105 3105 3106 3106 3105 3105 3106 3106 3106
3043 3043 3044 3045 3046 3045 3044 3044 3044 3046 3047 3047 3048 3048 3049 3050 3051 3053 3053 3054 3056 3059 3059 3058 3059 3061 3062 3064 3065 3066 3067 3068 3068 3068 3069 3070 3071 3072 3073 3073 3074 3075 3076 3077 3078 3080 3081 3081 3082 3083 3084 3085 3086 3086 3088 3089 3089 3089 3089 3090 3090 3091 3092 3092 3093 3093 3094 3095 3096 3097 3097 3098 3099 3099 3100 3101 3101 3101 3102 3103 3103 3103 3103 3103 3103 3103
3042 3043 3044 3044 3044 3044 3044 3042 3042 3044 3046 3048 3047 3047 3048 3050 3051 3052 3054 3054 3056 3059 3059 3058 3059 3060 3061 3063 3065 3066 3068 3069 3067 3066 3067 3068 3069 3070 3071 3072 3073 3074 3075 3076 3077 3078 3079 3080 3081 3081 3082 3083 3083 3084 3085 3086 3087 3087 3087 3087 3088 3090 3091 3091 3091 3091 3091 3092 3093 3094 3094 3095 3095 3095 3096 3097 3097 3097 3098 3099 3099 3099 3099 3099 3099 3099
3042 3042 3043 3042 3042 3042 3043 3042 3042 3044 3046 3047 3047 3047 3047 3049 3050 3052 3053 3053 3055 3059 3061 3060 3060 3061 3061 3063 3065 3066 3067 3067 3065 3065 3067 3068 3068 3069 3069 3070 3071 3072 3073 3075 3076 3077 3077 3078 3078 3079 3080 3080 3081 3082 3083 3084 3084 3085 3085 3086 3087 3087 3088 3088 3088 3088 3089 3089 3090 3090 3090 3090 3090 3091 3092 3092 3092 3092 3093 3094 3094 3095 3095 3095 3095 3095
3041 3042 3042 3041 3041 3041 3042 3043 3043 3044 3045 3045 3046 3047 3047 3049 3050 3052 3052 3051 3054 3058 3060 3060 3061 3062 3062 3064 3065 3064 3065 3065 3063 3064 3066 3067 3067 3068 3068 3069 3070 3071 3072 3073 3074 3074 3075 3075 3076 3076 3077 3078 3079 3080 3081 3082 3082 3083 3083 3084 3084 3084 3084 3084 3084 3084 3085 3085 3085 3085 3085 3086 3086 3086 3087 3087 3088 3087 3088 3089 3089 3089 3090 3090 3091 3091
3041 3041 3041 3041 3041 3042 3042 3042 3043 3043 3044 3044 3045 3046 3048 3050 3051 3052 3052 3053 3055 3057 3058 3059 3060 3061 3061 3062 3061 3061 3063 3063 3063 3064 3065 3065 3066 3067 3067 3068 3069 3070 3070 3071 3072 3073 3073 3073 3074 3075 3075 3076 3077 3078 3078 3079 3079 3079 3080 3080 3080 3080 3080 3079 3079 3079 3080 3080 3080 3080 3080 3081 3081 3081 3081 3082 3082 3082 3083 3083 3084 3084 3084 3085 3086 3086
3041 3041 3041 3041 3042 3042 3042 3042 3042 3043 3044 3044 3046 3047 3048 3050 3051 3052 3053 3054 3056 3057 3057 3057 3057 3058 3059 3059 3058 3059 3061 3062 3062 3063 3064 3064 3065 3066 3066 3067 3067 3068 3068 3069 3069 3070 3071 3071 3072 3072 3073 3073 3074 3074 3075 3075 3075 3075 3075 3075 3075 3075 3075 3075 3075 3074 3074 3074 3074 3074 3075 3075 3075 3075 3075 3076 3076 3077 3077 3078 3078 3079 3079 3080 3081 3081
3041 3041 3041 3041 3042 3043 3043 3042 3043 3044 3044 3044 3045 3046 3047 3048 3050 3051 3053 3054 3055 3056 3055 3055 3055 3056 3057 3057 3057 3058 3059 3060 3061 3062 3062 3063 3064 3064 3064 3065 3065 3066 3066 3066 3066 3067 3068 3068 3068 3068 3068 3068 3069 3069 3069 3070 3070 3070 3070 3070 3070 3070 3070 3069 3069 3069 3069 3069 3069 3069 3069 3068 3068 3068 3068 3069 3069 3070 3071 3072 3073 3074 3074 3075 3075 3076
3041 3041 3041 3041 3041 3043 3043 3044 3044 3045 3045 3045 3045 3046 3047 3048 3049 3051 3052 3053 3054 3054 3054 3053 3053 3054 3055 3056 3056 3056 3058 3059 3060 3060 3061 3061 3062 3062 3063 3063 3063 3064 3064 3064 3064 3064 3064 3064 3064 3064 3064 3064 3063 3063 3064 3064 3064 3064 3064 3064 3064 3064 3063 3063 3063 3062 3062 3062 3062 3062 3062 3062 3062 3062 3062 3062 3062 3062 3063 3064 3066 3067 3068 3069 3070 3070
3040 3041 3041 3042 3042 3042 3042 3043 3044 3044 3044 3044 3045 3046 3047 3048 3049 3050 3050 3050 3051 3051 3052 3052 3052 3052 3053 3054 3055 3056 3057 3057 3058 3058 3059 3059 3059 3060 3060 3060 3060 3060 3060 3060 3060 3060 3060 3060 3060 3059 3059 3059 3058 3058 3057 3057 3057 3056 3056 3056 3056 3056 3055 3055 3055 3054 3054 3054 3053 3053 3053 3053 3053 3054 3054 3054 3055 3055 3055 3056 3057 3059 3061 3063 3063 3064
3040 3040 3041 3042 3042 3042 3043 3043 3043 3044 3044 3044 3044 3045 3045 3046 3047 3048 3048 3048 3049 3050 3050 3051 3051 3052 3053 3053 3054 3054 3055 3056 3056 3056 3057 3057 3057 3057 3057 3057 3057 3057 3057 3057 3057 3057 3056 3056 3056 3055 3055 3054 3054 3053 3052 3052 3051 3050 3050 3049 3048 3048 3047 3046 3046 3045 3045 3044 3044 3043 3043 3043 3044 3044 3045 3045 3046 3047 3047 3048 3049 3050 3052 3055 3057 3058
3041 3041 3042 3043 3043 3043 3043 3043 3043 3043 3044 3044 3044 3044 3044 3044 3045 3046 3046 3047 3048 3049 3049 3050 3050 3051 3051 3052 3052 3053 3053 3054 3054 3055 3055 3055 3055 3054 3054 3055 3055 3054 3054 3053 3053 3053 3053 3052 3052 3051 3051 3050 3050 3049 3048 3047 3047 3045 3044 3043 3042 3041 3040 3039 3038 3037 3037 3036 3035 3035 3034 3034 3034 3035 3035 3036 3037 3038 3039 3040 3042 3043 3045 3047 3050 3051
3041 3042 3043 3043 3043 3043 3043 3043 3043 3044 3045 3045 3045 3045 3045 3044 3045 3045 3046 3047 3047 3048 3048 3048 3049 3049 3050 3050 3051 3051 3051 3051 3052 3052 3052 3052 3052 3051 3051 3051 3051 3051 3050 3050 3050 3050 3049 3048 3048 3048 3047 3047 3046 3045 3045 3044 3043 3041 3040 3038 3037 3035 3034 3033 3032 3031 3030 3029 3028 3028 3027 3027 3027 3026 3027 3028 3029 3030 3031 3032 3034 3036 3037 3039 3041 3043
3042 3043 3043 3043 3044 3044 3043 3043 3044 3045 3045 3045 3045 3045 3045 3045 3045 3045 3046 3047 3047 3046 3047 3047 3047 3048 3048 3048 3048 3049 3049 3048 3049 3049 3049 3049 3048 3048 3048 3048 3048 3047 3047 3047 3047 3047 3046 3046 3045 3045 3044 3044 3043 3042 3042 3040 3039 3037 3036 3034 3032 3031 3029 3028 3027 3025 3024 3023 3023 3022 3021 3021 3020 3020 3020 3020 3020 3021 3023 3024 3026 3028 3030 3032 3033 3034
3042 3042 3042 3042 3043 3043 3043 3043 3044 3044 3045 3044 3044 3044 3045 3045 3045 3046 3046 3046 3046 3045 3045 3045 3046 3046 3046 3046 3046 3046 3046 3046 3046 3046 3047 3047 3046 3045 3045 3045 3045 3045 3045 3045 3045 3044 3044 3043 3043 3042 3042 3041 3040 3040 3039 3037 3036 3034 3032 3030 3029 3027 3026 3024 3022 3021 3020 3018 3017 3016 3016 3015 3014 3014 3014 3013 3013 3014 3014 3016 3018 3020 3022 3025 3027 3028